Time,TemperatureF,DewpointF,PressureIn,WindDirection,WindDirectionDegrees,WindSpeedMPH,WindSpeedGustMPH,Humidity,HourlyPrecipIn,Conditions,Clouds,dailyrainin,SoftwareType,DateUTC
2013-04-19 00:00:00,59.0,58.4,29.25,SSW,194,15.0,15.4,98,0.04,,,0.00,VWS V14.00,2013-04-19 04:00:00,
2013-04-19 00:01:00,58.8,58.3,29.25,SSW,200,8.7,15.0,98,0.04,,,0.00,VWS V14.00,2013-04-19 04:01:00,
2013-04-19 00:02:00,58.5,57.9,29.25,SSW,199,11.0,11.9,98,0.04,,,0.00,VWS V14.00,2013-04-19 04:02:00,
2013-04-19 00:03:00,58.5,57.9,29.25,SSW,198,12.8,13.6,98,0.04,,,0.00,VWS V14.00,2013-04-19 04:03:00,
2013-04-19 00:08:00,57.7,56.9,29.25,SSW,193,19.7,19.7,97,0.04,,,0.00,VWS V14.00,2013-04-19 04:08:00,
2013-04-19 00:13:00,57.0,56.2,29.25,SW,225,5.8,7.6,97,0.04,,,0.00,VWS V14.00,2013-04-19 04:13:00,
2013-04-19 00:18:00,56.3,55.2,29.25,SW,216,22.8,22.8,96,0.08,,,0.04,VWS V14.00,2013-04-19 04:18:00,
2013-04-19 00:24:00,54.7,53.6,29.25,SW,219,11.9,11.9,96,0.08,,,0.04,VWS V14.00,2013-04-19 04:24:00,
2013-04-19 00:30:00,52.7,50.7,29.31,South,190,13.2,13.2,93,0.08,,,0.04,VWS V14.00,2013-04-19 04:30:00,
2013-04-19 00:35:00,51.6,49.7,29.31,SSW,212,10.1,10.5,93,0.08,,,0.04,VWS V14.00,2013-04-19 04:35:00,
2013-04-19 00:41:00,50.7,49.1,29.28,SW,218,5.8,13.2,94,0.08,,,0.04,VWS V14.00,2013-04-19 04:41:00,
2013-04-19 00:47:00,50.0,48.3,29.28,SW,222,7.6,7.6,94,0.08,,,0.04,VWS V14.00,2013-04-19 04:47:00,
2013-04-19 00:52:00,49.3,47.9,29.28,SSW,212,5.8,6.3,95,0.08,,,0.04,VWS V14.00,2013-04-19 04:52:00,
2013-04-19 00:57:00,48.7,47.7,29.28,WSW,249,12.8,12.8,96,0.04,,,0.04,VWS V14.00,2013-04-19 04:57:00,
2013-04-19 01:03:00,48.2,47.1,29.28,WSW,240,9.6,9.6,96,0.04,,,0.04,VWS V14.00,2013-04-19 05:03:00,
2013-04-19 01:09:00,47.8,47.0,29.28,SW,222,8.7,8.7,97,0.04,,,0.04,VWS V14.00,2013-04-19 05:09:00,
2013-04-19 01:14:00,47.5,46.7,29.28,SSW,207,8.7,12.8,97,0.04,,,0.04,VWS V14.00,2013-04-19 05:14:00,
2013-04-19 01:20:00,47.1,46.3,29.28,SW,222,8.7,8.7,97,0.00,,,0.04,VWS V14.00,2013-04-19 05:20:00,
2013-04-19 01:26:00,46.6,45.8,29.28,SSW,210,12.8,12.8,97,0.00,,,0.04,VWS V14.00,2013-04-19 05:26:00,
2013-04-19 01:31:00,46.2,45.7,29.28,SW,236,8.1,12.8,98,0.00,,,0.04,VWS V14.00,2013-04-19 05:31:00,
2013-04-19 01:36:00,45.9,45.3,29.28,South,190,7.6,7.6,98,0.00,,,0.04,VWS V14.00,2013-04-19 05:36:00,
2013-04-19 01:41:00,45.9,45.3,29.28,WSW,238,3.1,8.3,98,0.00,,,0.04,VWS V14.00,2013-04-19 05:41:00,
2013-04-19 01:46:00,45.9,45.3,29.28,WSW,245,5.8,5.8,98,0.00,,,0.04,VWS V14.00,2013-04-19 05:46:00,
2013-04-19 01:52:00,45.3,44.8,29.28,WSW,245,5.8,5.8,98,0.00,,,0.04,VWS V14.00,2013-04-19 05:52:00,
2013-04-19 01:57:00,44.8,44.2,29.28,SSW,212,6.7,6.7,98,0.00,,,0.04,VWS V14.00,2013-04-19 05:57:00,
2013-04-19 02:02:00,44.8,44.2,29.28,WSW,256,7.6,8.3,98,0.00,,,0.04,VWS V14.00,2013-04-19 06:02:00,
2013-04-19 02:07:00,44.6,44.1,29.28,SSW,206,7.6,7.6,98,0.04,,,0.08,VWS V14.00,2013-04-19 06:07:00,
2013-04-19 02:13:00,43.9,43.3,29.28,SSW,213,7.6,7.6,98,0.04,,,0.08,VWS V14.00,2013-04-19 06:13:00,
2013-04-19 02:18:00,43.7,43.2,29.28,SSW,211,7.6,8.3,98,0.04,,,0.08,VWS V14.00,2013-04-19 06:18:00,
2013-04-19 02:23:00,43.3,42.8,29.28,WSW,241,5.4,5.4,98,0.04,,,0.08,VWS V14.00,2013-04-19 06:23:00,
2013-04-19 02:29:00,43.2,42.6,29.25,SW,233,7.6,7.6,98,0.04,,,0.08,VWS V14.00,2013-04-19 06:29:00,
2013-04-19 02:34:00,43.2,42.6,29.25,WSW,237,10.1,10.1,98,0.04,,,0.08,VWS V14.00,2013-04-19 06:34:00,
2013-04-19 02:39:00,42.8,42.3,29.25,SW,224,7.6,12.8,98,0.04,,,0.08,VWS V14.00,2013-04-19 06:39:00,
2013-04-19 02:44:00,42.4,41.9,29.28,SW,225,7.2,10.5,98,0.04,,,0.08,VWS V14.00,2013-04-19 06:44:00,
2013-04-19 02:50:00,42.4,41.9,29.28,South,185,3.6,3.6,98,0.04,,,0.08,VWS V14.00,2013-04-19 06:50:00,
2013-04-19 02:55:00,42.3,41.7,29.28,SSW,211,6.7,7.2,98,0.04,,,0.08,VWS V14.00,2013-04-19 06:55:00,
2013-04-19 03:01:00,42.1,41.6,29.25,SSW,210,9.2,9.2,98,0.04,,,0.08,VWS V14.00,2013-04-19 07:01:00,
2013-04-19 03:06:00,42.1,41.6,29.25,WSW,247,5.8,5.8,98,0.00,,,0.08,VWS V14.00,2013-04-19 07:06:00,
2013-04-19 03:12:00,41.9,41.4,29.25,SW,235,5.8,7.6,98,0.00,,,0.08,VWS V14.00,2013-04-19 07:12:00,
2013-04-19 03:17:00,41.9,41.4,29.25,West,266,5.8,6.7,98,0.00,,,0.08,VWS V14.00,2013-04-19 07:17:00,
2013-04-19 03:23:00,41.7,41.2,29.25,SW,233,8.3,8.3,98,0.00,,,0.08,VWS V14.00,2013-04-19 07:23:00,
2013-04-19 03:28:00,41.5,40.8,29.25,West,266,2.7,5.8,97,0.00,,,0.08,VWS V14.00,2013-04-19 07:28:00,
2013-04-19 03:33:00,41.5,40.8,29.25,SW,219,4.9,4.9,97,0.00,,,0.08,VWS V14.00,2013-04-19 07:33:00,
2013-04-19 03:39:00,41.2,40.1,29.25,SSW,200,6.3,6.3,96,0.00,,,0.08,VWS V14.00,2013-04-19 07:39:00,
2013-04-19 03:44:00,41.2,40.1,29.25,SSW,197,8.3,8.3,96,0.00,,,0.08,VWS V14.00,2013-04-19 07:44:00,
2013-04-19 03:49:00,41.2,40.1,29.25,West,260,3.1,8.3,96,0.00,,,0.08,VWS V14.00,2013-04-19 07:49:00,
2013-04-19 03:54:00,41.2,40.1,29.25,WSW,252,8.3,8.3,96,0.00,,,0.08,VWS V14.00,2013-04-19 07:54:00,
2013-04-19 04:00:00,40.6,39.6,29.25,WSW,252,8.3,8.3,96,0.00,,,0.08,VWS V14.00,2013-04-19 08:00:00,
2013-04-19 04:05:00,40.5,39.4,29.25,West,266,11.0,11.0,96,0.00,,,0.08,VWS V14.00,2013-04-19 08:05:00,
2013-04-19 04:11:00,40.5,39.4,29.25,West,266,11.0,11.0,96,0.00,,,0.08,VWS V14.00,2013-04-19 08:11:00,
2013-04-19 04:16:00,40.5,39.4,29.25,West,266,11.0,11.0,96,0.00,,,0.08,VWS V14.00,2013-04-19 08:16:00,
2013-04-19 04:21:00,40.3,39.2,29.25,SSW,211,6.3,6.3,96,0.00,,,0.08,VWS V14.00,2013-04-19 08:21:00,
2013-04-19 04:26:00,40.3,39.2,29.25,SW,219,8.7,8.7,96,0.00,,,0.08,VWS V14.00,2013-04-19 08:26:00,
2013-04-19 04:32:00,40.1,39.0,29.25,SW,219,7.6,7.6,96,0.00,,,0.08,VWS V14.00,2013-04-19 08:32:00,
2013-04-19 04:37:00,39.9,38.9,29.25,SW,227,4.0,8.1,96,0.00,,,0.08,VWS V14.00,2013-04-19 08:37:00,
2013-04-19 04:43:00,39.7,38.4,29.25,WSW,237,8.3,8.3,95,0.00,,,0.08,VWS V14.00,2013-04-19 08:43:00,
2013-04-19 04:49:00,39.7,38.2,29.25,SSW,201,7.6,8.7,94,0.00,,,0.08,VWS V14.00,2013-04-19 08:49:00,
2013-04-19 04:54:00,39.6,38.0,29.25,SSW,193,5.4,5.4,94,0.00,,,0.08,VWS V14.00,2013-04-19 08:54:00,
2013-04-19 04:59:00,39.4,37.5,29.25,West,264,11.4,11.4,93,0.00,,,0.08,VWS V14.00,2013-04-19 08:59:00,
2013-04-19 05:04:00,39.2,37.1,29.25,SSW,206,10.1,11.0,92,0.00,,,0.08,VWS V14.00,2013-04-19 09:04:00,
2013-04-19 05:09:00,39.2,37.1,29.25,SSW,207,7.6,8.1,92,0.00,,,0.08,VWS V14.00,2013-04-19 09:09:00,
2013-04-19 05:15:00,39.0,36.9,29.22,SW,235,4.0,4.0,92,0.00,,,0.08,VWS V14.00,2013-04-19 09:15:00,
2013-04-19 05:20:00,38.8,36.4,29.22,South,190,8.7,8.7,91,0.00,,,0.08,VWS V14.00,2013-04-19 09:20:00,
2013-04-19 05:26:00,38.7,36.3,29.22,SW,222,5.8,7.6,91,0.00,,,0.08,VWS V14.00,2013-04-19 09:26:00,
2013-04-19 05:31:00,38.5,35.8,29.22,SSW,193,8.7,10.5,90,0.00,,,0.08,VWS V14.00,2013-04-19 09:31:00,
2013-04-19 05:36:00,38.5,35.8,29.22,WSW,238,11.0,11.0,90,0.00,,,0.08,VWS V14.00,2013-04-19 09:36:00,
2013-04-19 05:42:00,38.1,35.2,29.25,SW,219,8.1,8.1,89,0.00,,,0.08,VWS V14.00,2013-04-19 09:42:00,
2013-04-19 05:47:00,37.9,34.7,29.25,SW,229,8.1,12.8,88,0.00,,,0.08,VWS V14.00,2013-04-19 09:47:00,
2013-04-19 05:53:00,37.8,34.2,29.25,SW,221,10.5,10.5,87,0.00,,,0.08,VWS V14.00,2013-04-19 09:53:00,
2013-04-19 05:59:00,37.6,34.1,29.25,WSW,246,11.0,11.9,87,0.00,,,0.08,VWS V14.00,2013-04-19 09:59:00,
2013-04-19 06:04:00,37.6,33.8,29.25,SSW,210,5.4,8.3,86,0.00,,,0.08,VWS V14.00,2013-04-19 10:04:00,
2013-04-19 06:09:00,37.4,33.6,29.25,WSW,254,5.8,10.5,86,0.00,,,0.08,VWS V14.00,2013-04-19 10:09:00,
2013-04-19 06:14:00,37.4,33.6,29.25,SSW,204,11.4,11.4,86,0.00,,,0.08,VWS V14.00,2013-04-19 10:14:00,
2013-04-19 06:19:00,37.4,33.6,29.25,SSW,205,15.0,15.9,86,0.00,,,0.08,VWS V14.00,2013-04-19 10:19:00,
2013-04-19 06:25:00,37.4,33.6,29.25,SSW,207,10.1,11.0,86,0.00,,,0.08,VWS V14.00,2013-04-19 10:25:00,
2013-04-19 06:31:00,37.2,33.4,29.22,WSW,249,10.5,11.4,86,0.00,,,0.08,VWS V14.00,2013-04-19 10:31:00,
2013-04-19 06:36:00,37.2,33.4,29.22,WSW,237,9.2,9.2,86,0.00,,,0.08,VWS V14.00,2013-04-19 10:36:00,
2013-04-19 06:42:00,37.0,33.2,29.22,SW,217,6.3,6.3,86,0.00,,,0.08,VWS V14.00,2013-04-19 10:42:00,
2013-04-19 06:47:00,37.0,33.2,29.22,SSW,208,11.9,16.3,86,0.00,,,0.08,VWS V14.00,2013-04-19 10:47:00,
2013-04-19 06:53:00,37.0,33.0,29.22,South,190,10.5,17.4,85,0.00,,,0.08,VWS V14.00,2013-04-19 10:53:00,
2013-04-19 06:58:00,36.9,31.6,29.25,West,265,7.6,7.6,81,0.00,,,0.08,VWS V14.00,2013-04-19 10:58:00,
2013-04-19 07:03:00,36.9,31.3,29.25,SW,230,11.4,11.4,80,0.00,,,0.08,VWS V14.00,2013-04-19 11:03:00,
2013-04-19 07:09:00,36.9,31.3,29.25,SSW,195,8.3,8.3,80,0.00,,,0.08,VWS V14.00,2013-04-19 11:09:00,
2013-04-19 07:14:00,36.9,31.3,29.25,West,280,7.6,8.7,80,0.00,,,0.08,VWS V14.00,2013-04-19 11:14:00,
2013-04-19 07:20:00,36.9,31.6,29.25,WSW,257,8.7,13.2,81,0.00,,,0.08,VWS V14.00,2013-04-19 11:20:00,
2013-04-19 07:25:00,36.9,31.6,29.25,SW,229,11.9,11.9,81,0.00,,,0.08,VWS V14.00,2013-04-19 11:25:00,
2013-04-19 07:31:00,36.9,31.6,29.25,SSW,213,7.6,10.5,81,0.00,,,0.08,VWS V14.00,2013-04-19 11:31:00,
2013-04-19 07:37:00,36.9,31.9,29.25,SSW,212,13.2,15.4,82,0.00,,,0.08,VWS V14.00,2013-04-19 11:37:00,
2013-04-19 07:42:00,36.9,31.0,29.25,SW,217,8.3,12.8,79,0.00,,,0.08,VWS V14.00,2013-04-19 11:42:00,
2013-04-19 07:48:00,36.9,30.6,29.25,SW,219,8.1,13.2,78,0.00,,,0.08,VWS V14.00,2013-04-19 11:48:00,
2013-04-19 07:53:00,36.9,30.6,29.25,SSW,209,10.5,10.5,78,0.00,,,0.08,VWS V14.00,2013-04-19 11:53:00,
2013-04-19 07:59:00,36.9,30.3,29.22,SW,220,3.6,7.6,77,0.00,,,0.08,VWS V14.00,2013-04-19 11:59:00,
2013-04-19 08:05:00,36.9,30.6,29.22,SW,223,10.1,10.1,78,0.00,,,0.08,VWS V14.00,2013-04-19 12:05:00,
2013-04-19 08:10:00,36.9,30.6,29.22,SW,220,8.7,8.7,78,0.00,,,0.08,VWS V14.00,2013-04-19 12:10:00,
2013-04-19 08:15:00,36.9,30.3,29.25,SSW,208,12.8,12.8,77,0.00,,,0.08,VWS V14.00,2013-04-19 12:15:00,
2013-04-19 08:20:00,36.9,30.3,29.25,SW,234,11.0,11.0,77,0.00,,,0.08,VWS V14.00,2013-04-19 12:20:00,
2013-04-19 08:25:00,37.0,30.2,29.25,SW,216,8.7,8.7,76,0.00,,,0.08,VWS V14.00,2013-04-19 12:25:00,
2013-04-19 08:31:00,37.0,30.5,29.25,SW,216,5.8,5.8,77,0.00,,,0.08,VWS V14.00,2013-04-19 12:31:00,
2013-04-19 08:37:00,37.0,30.5,29.25,SSW,202,11.9,13.2,77,0.00,,,0.08,VWS V14.00,2013-04-19 12:37:00,
2013-04-19 08:42:00,37.0,30.2,29.25,West,263,8.7,12.3,76,0.00,,,0.08,VWS V14.00,2013-04-19 12:42:00,
2013-04-19 08:47:00,37.0,30.5,29.25,SW,216,13.6,13.6,77,0.00,,,0.08,VWS V14.00,2013-04-19 12:47:00,
2013-04-19 08:52:00,37.0,30.5,29.25,SSW,201,8.7,8.7,77,0.00,,,0.08,VWS V14.00,2013-04-19 12:52:00,
2013-04-19 08:57:00,37.0,30.5,29.25,WSW,237,8.7,12.8,77,0.00,,,0.08,VWS V14.00,2013-04-19 12:57:00,
2013-04-19 09:02:00,37.0,30.8,29.25,SSW,203,11.0,11.0,78,0.00,,,0.08,VWS V14.00,2013-04-19 13:02:00,
2013-04-19 09:08:00,37.0,30.8,29.25,SSW,201,11.0,12.8,78,0.00,,,0.08,VWS V14.00,2013-04-19 13:08:00,
2013-04-19 09:13:00,37.0,30.8,29.25,WSW,240,6.3,12.3,78,0.00,,,0.08,VWS V14.00,2013-04-19 13:13:00,
2013-04-19 09:18:00,37.0,30.8,29.25,SSW,198,10.5,10.5,78,0.00,,,0.08,VWS V14.00,2013-04-19 13:18:00,
2013-04-19 09:24:00,37.0,30.8,29.25,SSW,198,11.0,17.0,78,0.00,,,0.08,VWS V14.00,2013-04-19 13:24:00,
2013-04-19 09:30:00,37.0,30.5,29.25,SSW,208,8.1,13.2,77,0.00,,,0.08,VWS V14.00,2013-04-19 13:30:00,
2013-04-19 09:35:00,37.0,30.5,29.25,SW,215,10.1,11.0,77,0.00,,,0.08,VWS V14.00,2013-04-19 13:35:00,
2013-04-19 09:41:00,37.0,30.2,29.25,SW,220,11.0,11.0,76,0.00,,,0.08,VWS V14.00,2013-04-19 13:41:00,
2013-04-19 09:46:00,37.0,30.5,29.25,South,191,12.8,12.8,77,0.00,,,0.08,VWS V14.00,2013-04-19 13:46:00,
2013-04-19 09:52:00,37.0,30.5,29.25,SSW,210,11.9,11.9,77,0.00,,,0.08,VWS V14.00,2013-04-19 13:52:00,
2013-04-19 09:58:00,37.0,30.5,29.25,SW,225,10.5,10.5,77,0.00,,,0.08,VWS V14.00,2013-04-19 13:58:00,
2013-04-19 10:03:00,37.0,30.5,29.25,SSW,192,7.6,13.2,77,0.00,,,0.08,VWS V14.00,2013-04-19 14:03:00,
2013-04-19 10:09:00,37.4,30.9,29.25,SW,219,5.8,5.8,77,0.00,,,0.08,VWS V14.00,2013-04-19 14:09:00,
2013-04-19 10:15:00,37.6,30.7,29.25,SW,225,8.1,8.1,76,0.00,,,0.08,VWS V14.00,2013-04-19 14:15:00,
2013-04-19 10:20:00,37.6,30.7,29.25,South,191,19.7,19.7,76,0.00,,,0.08,VWS V14.00,2013-04-19 14:20:00,
2013-04-19 10:26:00,37.6,30.4,29.25,SW,223,12.3,12.3,75,0.00,,,0.08,VWS V14.00,2013-04-19 14:26:00,
2013-04-19 10:31:00,37.4,29.9,29.25,SW,235,14.5,14.5,74,0.00,,,0.08,VWS V14.00,2013-04-19 14:31:00,
2013-04-19 10:36:00,37.4,29.9,29.25,WSW,254,15.0,15.0,74,0.00,,,0.08,VWS V14.00,2013-04-19 14:36:00,
2013-04-19 10:41:00,37.4,29.9,29.25,SSW,204,14.1,15.0,74,0.00,,,0.08,VWS V14.00,2013-04-19 14:41:00,
2013-04-19 10:47:00,37.4,29.5,29.25,SSW,210,15.0,15.0,73,0.00,,,0.08,VWS V14.00,2013-04-19 14:47:00,
2013-04-19 10:52:00,37.4,29.5,29.25,SSW,202,24.2,24.2,73,0.00,,,0.08,VWS V14.00,2013-04-19 14:52:00,
2013-04-19 10:58:00,37.4,29.2,29.25,SW,232,13.2,13.2,72,0.00,,,0.08,VWS V14.00,2013-04-19 14:58:00,
2013-04-19 11:03:00,37.4,29.2,29.25,SSW,197,10.1,19.2,72,0.00,,,0.08,VWS V14.00,2013-04-19 15:03:00,
2013-04-19 11:09:00,37.4,29.2,29.25,SW,236,8.7,15.4,72,0.00,,,0.08,VWS V14.00,2013-04-19 15:09:00,
2013-04-19 11:15:00,37.6,29.0,29.28,SW,215,15.4,15.4,71,0.00,,,0.08,VWS V14.00,2013-04-19 15:15:00,
2013-04-19 11:20:00,37.8,29.6,29.28,SSW,210,17.9,17.9,72,0.00,,,0.08,VWS V14.00,2013-04-19 15:20:00,
2013-04-19 11:26:00,37.9,29.0,29.28,SW,214,13.2,21.9,70,0.00,,,0.08,VWS V14.00,2013-04-19 15:26:00,
2013-04-19 11:31:00,37.9,29.0,29.25,SW,233,7.6,8.7,70,0.00,,,0.08,VWS V14.00,2013-04-19 15:31:00,
2013-04-19 11:36:00,37.9,29.4,29.25,SW,230,15.0,15.0,71,0.00,,,0.08,VWS V14.00,2013-04-19 15:36:00,
2013-04-19 11:42:00,37.8,29.6,29.28,South,181,19.7,19.7,72,0.00,,,0.08,VWS V14.00,2013-04-19 15:42:00,
2013-04-19 11:47:00,37.6,30.1,29.28,SW,223,10.1,15.0,74,0.00,,,0.08,VWS V14.00,2013-04-19 15:47:00,
2013-04-19 11:53:00,37.6,30.1,29.28,SSW,211,15.4,15.4,74,0.00,,,0.08,VWS V14.00,2013-04-19 15:53:00,
2013-04-19 11:58:00,37.4,30.9,29.28,SSW,195,11.0,12.8,77,0.00,,,0.08,VWS V14.00,2013-04-19 15:58:00,
2013-04-19 12:03:00,37.4,30.9,29.28,SW,214,6.3,6.3,77,0.00,,,0.08,VWS V14.00,2013-04-19 16:03:00,
2013-04-19 12:08:00,37.9,31.7,29.28,SW,216,11.0,11.0,78,0.00,,,0.08,VWS V14.00,2013-04-19 16:08:00,
2013-04-19 12:13:00,37.9,31.4,29.28,West,278,13.2,15.4,77,0.00,,,0.08,VWS V14.00,2013-04-19 16:13:00,
2013-04-19 12:18:00,38.3,31.4,29.28,SSW,209,19.7,19.7,76,0.00,,,0.08,VWS V14.00,2013-04-19 16:18:00,
2013-04-19 12:24:00,38.3,31.1,29.28,SW,225,6.3,6.3,75,0.00,,,0.08,VWS V14.00,2013-04-19 16:24:00,
2013-04-19 12:29:00,38.3,31.1,29.28,SSW,203,15.4,15.4,75,0.00,,,0.08,VWS V14.00,2013-04-19 16:29:00,
2013-04-19 12:34:00,38.1,30.9,29.28,SSW,198,9.6,13.6,75,0.00,,,0.08,VWS V14.00,2013-04-19 16:34:00,
2013-04-19 12:39:00,38.1,30.9,29.28,SSW,207,10.1,17.0,75,0.00,,,0.08,VWS V14.00,2013-04-19 16:39:00,
2013-04-19 12:45:00,38.1,31.2,29.28,SSW,194,17.9,17.9,76,0.00,,,0.08,VWS V14.00,2013-04-19 16:45:00,
2013-04-19 12:50:00,38.3,31.4,29.28,WSW,240,15.0,15.0,76,0.00,,,0.08,VWS V14.00,2013-04-19 16:50:00,
2013-04-19 12:55:00,38.7,31.4,29.28,SW,234,8.1,17.4,75,0.00,,,0.08,VWS V14.00,2013-04-19 16:55:00,
2013-04-19 13:00:00,39.2,31.0,29.28,SSW,211,13.2,19.2,72,0.00,,,0.08,VWS V14.00,2013-04-19 17:00:00,
2013-04-19 13:06:00,39.2,31.0,29.28,SW,222,22.8,24.6,72,0.00,,,0.08,VWS V14.00,2013-04-19 17:06:00,
2013-04-19 13:11:00,39.4,30.1,29.28,SSW,201,17.4,17.4,69,0.00,,,0.08,VWS V14.00,2013-04-19 17:11:00,
2013-04-19 13:17:00,39.4,30.1,29.28,SW,222,15.4,15.4,69,0.00,,,0.08,VWS V14.00,2013-04-19 17:17:00,
2013-04-19 13:22:00,39.2,29.9,29.28,SSW,194,12.8,12.8,69,0.00,,,0.08,VWS V14.00,2013-04-19 17:22:00,
2013-04-19 13:28:00,39.0,30.1,29.28,SSW,207,8.3,11.0,70,0.00,,,0.08,VWS V14.00,2013-04-19 17:28:00,
2013-04-19 13:34:00,38.8,30.3,29.28,SW,224,8.7,10.5,71,0.00,,,0.08,VWS V14.00,2013-04-19 17:34:00,
2013-04-19 13:39:00,38.8,30.3,29.28,SSW,202,7.6,13.2,71,0.00,,,0.08,VWS V14.00,2013-04-19 17:39:00,
2013-04-19 13:44:00,38.5,30.6,29.28,SW,218,20.1,20.1,73,0.00,,,0.08,VWS V14.00,2013-04-19 17:44:00,
2013-04-19 13:49:00,38.1,31.2,29.28,WSW,253,10.5,19.7,76,0.00,,,0.08,VWS V14.00,2013-04-19 17:49:00,
2013-04-19 13:54:00,37.6,31.0,29.28,SSW,205,15.4,15.4,77,0.00,,,0.08,VWS V14.00,2013-04-19 17:54:00,
2013-04-19 14:00:00,37.4,31.2,29.31,WSW,241,8.3,8.7,78,0.00,,,0.08,VWS V14.00,2013-04-19 18:00:00,
2013-04-19 14:06:00,37.6,32.0,29.31,WSW,241,11.9,11.9,80,0.00,,,0.08,VWS V14.00,2013-04-19 18:06:00,
2013-04-19 14:11:00,37.9,32.6,29.31,SSW,208,13.2,13.2,81,0.00,,,0.08,VWS V14.00,2013-04-19 18:11:00,
2013-04-19 14:17:00,38.7,33.3,29.31,SSW,200,13.2,13.2,81,0.00,,,0.08,VWS V14.00,2013-04-19 18:17:00,
2013-04-19 14:22:00,38.7,32.4,29.31,South,176,11.9,11.9,78,0.00,,,0.08,VWS V14.00,2013-04-19 18:22:00,
2013-04-19 14:28:00,38.7,32.4,29.31,SSW,194,12.8,12.8,78,0.00,,,0.08,VWS V14.00,2013-04-19 18:28:00,
2013-04-19 14:33:00,38.5,33.5,29.31,SW,214,7.6,10.5,82,0.00,,,0.08,VWS V14.00,2013-04-19 18:33:00,
2013-04-19 14:38:00,38.5,33.8,29.31,SW,217,13.2,13.2,83,0.00,,,0.08,VWS V14.00,2013-04-19 18:38:00,
2013-04-19 14:44:00,38.7,34.5,29.31,SW,222,12.3,12.3,85,0.00,,,0.08,VWS V14.00,2013-04-19 18:44:00,
2013-04-19 14:49:00,38.8,34.4,29.31,SW,233,13.2,23.3,84,0.00,,,0.08,VWS V14.00,2013-04-19 18:49:00,
2013-04-19 14:55:00,38.7,34.5,29.31,SSW,207,21.9,21.9,85,0.00,,,0.08,VWS V14.00,2013-04-19 18:55:00,
2013-04-19 15:00:00,38.7,34.5,29.31,SSW,211,8.3,10.5,85,0.00,,,0.08,VWS V14.00,2013-04-19 19:00:00,
2013-04-19 15:06:00,38.7,34.5,29.31,WSW,256,6.3,6.3,85,0.00,,,0.08,VWS V14.00,2013-04-19 19:06:00,
2013-04-19 15:11:00,38.8,33.5,29.31,SSW,210,5.8,12.3,81,0.00,,,0.08,VWS V14.00,2013-04-19 19:11:00,
2013-04-19 15:16:00,38.8,32.9,29.34,SSW,208,15.0,15.0,79,0.00,,,0.08,VWS V14.00,2013-04-19 19:16:00,
2013-04-19 15:21:00,38.8,32.6,29.34,SW,216,14.5,14.5,78,0.00,,,0.08,VWS V14.00,2013-04-19 19:21:00,
2013-04-19 15:26:00,38.8,32.6,29.34,SSW,208,18.3,18.3,78,0.00,,,0.08,VWS V14.00,2013-04-19 19:26:00,
2013-04-19 15:31:00,39.0,32.8,29.34,SSW,200,8.3,8.3,78,0.00,,,0.08,VWS V14.00,2013-04-19 19:31:00,
2013-04-19 15:37:00,39.2,32.9,29.34,SW,235,8.3,8.7,78,0.00,,,0.08,VWS V14.00,2013-04-19 19:37:00,
2013-04-19 15:42:00,39.4,33.1,29.34,SW,221,11.0,16.3,78,0.00,,,0.08,VWS V14.00,2013-04-19 19:42:00,
2013-04-19 15:48:00,37.8,31.5,29.34,SW,226,5.8,5.8,78,0.00,,,0.08,VWS V14.00,2013-04-19 19:48:00,
2013-04-19 15:53:00,37.6,31.7,29.34,SW,217,12.3,12.3,79,0.00,,,0.08,VWS V14.00,2013-04-19 19:53:00,
2013-04-19 15:59:00,37.9,33.0,29.34,SW,230,8.3,8.3,82,0.00,,,0.08,VWS V14.00,2013-04-19 19:59:00,
2013-04-19 16:04:00,38.5,34.1,29.34,SW,226,8.1,12.3,84,0.00,,,0.08,VWS V14.00,2013-04-19 20:04:00,
2013-04-19 16:09:00,38.8,34.1,29.34,SW,221,9.2,10.1,83,0.00,,,0.08,VWS V14.00,2013-04-19 20:09:00,
2013-04-19 16:15:00,38.8,34.1,29.34,SW,220,10.1,11.0,83,0.00,,,0.08,VWS V14.00,2013-04-19 20:15:00,
2013-04-19 16:20:00,38.8,34.1,29.36,SW,214,19.2,19.2,83,0.00,,,0.08,VWS V14.00,2013-04-19 20:20:00,
2013-04-19 16:25:00,39.0,33.7,29.36,SW,219,15.9,15.9,81,0.00,,,0.08,VWS V14.00,2013-04-19 20:25:00,
2013-04-19 16:31:00,39.2,33.2,29.36,SSW,196,11.0,17.4,79,0.00,,,0.08,VWS V14.00,2013-04-19 20:31:00,
2013-04-19 16:37:00,39.2,32.3,29.36,SW,231,8.3,13.2,76,0.00,,,0.08,VWS V14.00,2013-04-19 20:37:00,
2013-04-19 16:42:00,39.4,31.8,29.36,SSW,206,18.8,18.8,74,0.00,,,0.08,VWS V14.00,2013-04-19 20:42:00,
2013-04-19 16:47:00,39.6,31.6,29.36,West,264,11.0,17.4,73,0.00,,,0.08,VWS V14.00,2013-04-19 20:47:00,
2013-04-19 16:52:00,39.6,31.0,29.36,SSW,204,4.9,4.9,71,0.00,,,0.08,VWS V14.00,2013-04-19 20:52:00,
2013-04-19 16:58:00,39.4,30.8,29.36,WSW,244,8.7,10.1,71,0.00,,,0.08,VWS V14.00,2013-04-19 20:58:00,
2013-04-19 17:03:00,39.4,31.1,29.36,SW,227,5.8,5.8,72,0.00,,,0.08,VWS V14.00,2013-04-19 21:03:00,
2013-04-19 17:09:00,39.4,31.1,29.36,SSW,197,12.3,12.3,72,0.00,,,0.08,VWS V14.00,2013-04-19 21:09:00,
2013-04-19 17:14:00,39.2,31.0,29.36,South,175,12.3,12.3,72,0.00,,,0.08,VWS V14.00,2013-04-19 21:14:00,
2013-04-19 17:19:00,38.8,30.9,29.36,South,184,14.1,14.1,73,0.00,,,0.08,VWS V14.00,2013-04-19 21:19:00,
2013-04-19 17:24:00,38.5,31.3,29.36,SSW,204,8.7,12.8,75,0.00,,,0.08,VWS V14.00,2013-04-19 21:24:00,
2013-04-19 17:30:00,38.3,31.4,29.39,SSW,204,6.3,14.5,76,0.00,,,0.08,VWS V14.00,2013-04-19 21:30:00,
2013-04-19 17:36:00,37.9,32.6,29.39,SW,222,4.0,4.0,81,0.00,,,0.08,VWS V14.00,2013-04-19 21:36:00,
2013-04-19 17:41:00,37.9,32.6,29.39,WNW,303,5.4,5.4,81,0.00,,,0.08,VWS V14.00,2013-04-19 21:41:00,
2013-04-19 17:47:00,38.5,32.9,29.39,SW,223,12.8,14.5,80,0.00,,,0.08,VWS V14.00,2013-04-19 21:47:00,
2013-04-19 17:52:00,38.7,32.4,29.39,South,187,6.7,8.1,78,0.00,,,0.08,VWS V14.00,2013-04-19 21:52:00,
2013-04-19 17:58:00,38.7,32.4,29.39,West,261,6.3,6.3,78,0.00,,,0.08,VWS V14.00,2013-04-19 21:58:00,
2013-04-19 18:03:00,38.7,32.1,29.39,SSW,213,7.6,12.3,77,0.00,,,0.08,VWS V14.00,2013-04-19 22:03:00,
2013-04-19 18:08:00,38.7,32.1,29.39,SSW,212,11.9,11.9,77,0.00,,,0.08,VWS V14.00,2013-04-19 22:08:00,
2013-04-19 18:14:00,38.1,32.5,29.39,SW,227,12.3,12.3,80,0.00,,,0.08,VWS V14.00,2013-04-19 22:14:00,
2013-04-19 18:19:00,37.9,32.6,29.39,SW,225,13.2,13.2,81,0.00,,,0.08,VWS V14.00,2013-04-19 22:19:00,
2013-04-19 18:24:00,37.9,33.0,29.39,SW,236,15.0,15.0,82,0.00,,,0.08,VWS V14.00,2013-04-19 22:24:00,
2013-04-19 18:29:00,37.8,33.1,29.39,SW,231,4.5,15.4,83,0.00,,,0.08,VWS V14.00,2013-04-19 22:29:00,
2013-04-19 18:34:00,37.8,33.1,29.42,WSW,243,5.4,5.4,83,0.00,,,0.08,VWS V14.00,2013-04-19 22:34:00,
2013-04-19 18:39:00,37.6,33.5,29.42,SW,228,15.4,15.4,85,0.00,,,0.08,VWS V14.00,2013-04-19 22:39:00,
2013-04-19 18:44:00,37.6,33.8,29.42,SW,236,10.1,10.5,86,0.00,,,0.08,VWS V14.00,2013-04-19 22:44:00,
2013-04-19 18:50:00,37.6,33.5,29.42,WSW,237,24.2,24.2,85,0.00,,,0.08,VWS V14.00,2013-04-19 22:50:00,
2013-04-19 18:55:00,37.6,33.5,29.42,SSW,201,6.3,6.3,85,0.00,,,0.08,VWS V14.00,2013-04-19 22:55:00,
2013-04-19 19:01:00,37.6,33.5,29.42,SSW,193,8.1,8.1,85,0.00,,,0.08,VWS V14.00,2013-04-19 23:01:00,
2013-04-19 19:07:00,37.6,33.2,29.42,WSW,258,8.1,8.1,84,0.00,,,0.08,VWS V14.00,2013-04-19 23:07:00,
2013-04-19 19:13:00,37.4,33.0,29.45,SW,221,9.6,9.6,84,0.00,,,0.08,VWS V14.00,2013-04-19 23:13:00,
2013-04-19 19:19:00,36.5,31.8,29.45,NNW,340,8.1,8.1,83,0.00,,,0.08,VWS V14.00,2013-04-19 23:19:00,
2013-04-19 19:24:00,35.6,31.2,29.45,North,357,3.1,3.1,84,0.00,,,0.08,VWS V14.00,2013-04-19 23:24:00,
2013-04-19 19:29:00,35.6,31.2,29.45,West,273,4.0,5.8,84,0.00,,,0.08,VWS V14.00,2013-04-19 23:29:00,
2013-04-19 19:35:00,34.9,31.4,29.45,WSW,257,11.0,11.0,87,0.00,,,0.08,VWS V14.00,2013-04-19 23:35:00,
2013-04-19 19:41:00,34.7,31.8,29.45,NW,306,4.9,4.9,89,0.00,,,0.08,VWS V14.00,2013-04-19 23:41:00,
2013-04-19 19:46:00,34.5,31.6,29.45,West,261,3.6,5.4,89,0.00,,,0.08,VWS V14.00,2013-04-19 23:46:00,
2013-04-19 19:52:00,34.5,31.9,29.45,SW,223,3.1,5.8,90,0.00,,,0.08,VWS V14.00,2013-04-19 23:52:00,
2013-04-19 19:57:00,34.5,31.9,29.45,SW,219,5.8,5.8,90,0.00,,,0.08,VWS V14.00,2013-04-19 23:57:00,
2013-04-19 20:02:00,34.5,31.9,29.45,SSW,210,4.0,4.0,90,0.00,,,0.08,VWS V14.00,2013-04-20 00:02:00,
2013-04-19 20:07:00,34.5,32.2,29.45,SW,219,6.3,6.3,91,0.00,,,0.08,VWS V14.00,2013-04-20 00:07:00,
2013-04-19 20:13:00,34.5,32.2,29.45,SW,224,3.6,3.6,91,0.00,,,0.08,VWS V14.00,2013-04-20 00:13:00,
2013-04-19 20:18:00,34.5,32.4,29.48,SSW,205,5.8,5.8,92,0.00,,,0.08,VWS V14.00,2013-04-20 00:18:00,
2013-04-19 20:23:00,34.5,32.4,29.48,WSW,250,4.0,5.8,92,0.00,,,0.08,VWS V14.00,2013-04-20 00:23:00,
2013-04-19 20:28:00,34.7,32.9,29.48,SSW,208,5.8,10.5,93,0.00,,,0.08,VWS V14.00,2013-04-20 00:28:00,
2013-04-19 20:34:00,34.9,33.1,29.48,West,268,6.3,6.3,93,0.00,,,0.08,VWS V14.00,2013-04-20 00:34:00,
2013-04-19 20:39:00,35.1,33.2,29.48,NNW,329,8.7,8.7,93,0.00,,,0.08,VWS V14.00,2013-04-20 00:39:00,
2013-04-19 20:44:00,35.1,33.2,29.48,SW,233,5.8,10.1,93,0.04,,,0.12,VWS V14.00,2013-04-20 00:44:00,
2013-04-19 20:49:00,35.1,33.2,29.48,WNW,300,0.0,6.3,93,0.04,,,0.12,VWS V14.00,2013-04-20 00:49:00,
2013-04-19 20:54:00,34.9,32.8,29.48,SW,226,3.6,5.4,92,0.04,,,0.12,VWS V14.00,2013-04-20 00:54:00,
2013-04-19 20:59:00,34.7,32.6,29.51,West,273,4.0,4.0,92,0.04,,,0.12,VWS V14.00,2013-04-20 00:59:00,
2013-04-19 21:05:00,34.5,32.4,29.51,SSW,212,2.7,5.8,92,0.04,,,0.12,VWS V14.00,2013-04-20 01:05:00,
2013-04-19 21:10:00,34.5,32.7,29.51,SW,219,8.7,8.7,93,0.04,,,0.12,VWS V14.00,2013-04-20 01:10:00,
2013-04-19 21:16:00,34.7,32.9,29.51,SW,228,4.0,4.0,93,0.04,,,0.12,VWS V14.00,2013-04-20 01:16:00,
2013-04-19 21:21:00,34.7,32.9,29.51,WNW,299,15.4,15.4,93,0.04,,,0.12,VWS V14.00,2013-04-20 01:21:00,
2013-04-19 21:27:00,34.9,32.2,29.51,SSW,207,5.4,5.4,90,0.04,,,0.12,VWS V14.00,2013-04-20 01:27:00,
2013-04-19 21:32:00,34.9,31.7,29.51,West,266,4.0,6.3,88,0.04,,,0.12,VWS V14.00,2013-04-20 01:32:00,
2013-04-19 21:38:00,34.9,30.8,29.51,West,270,5.8,5.8,85,0.04,,,0.12,VWS V14.00,2013-04-20 01:38:00,
2013-04-19 21:44:00,34.9,30.5,29.51,SSW,208,7.2,7.2,84,0.00,,,0.12,VWS V14.00,2013-04-20 01:44:00,
2013-04-19 21:49:00,34.9,30.5,29.51,SSW,203,6.3,6.3,84,0.00,,,0.12,VWS V14.00,2013-04-20 01:49:00,
2013-04-19 21:55:00,34.9,30.5,29.51,WSW,257,3.6,3.6,84,0.00,,,0.12,VWS V14.00,2013-04-20 01:55:00,
2013-04-19 22:00:00,34.5,30.5,29.54,SW,229,6.3,6.3,85,0.00,,,0.12,VWS V14.00,2013-04-20 02:00:00,
2013-04-19 22:05:00,34.5,30.5,29.54,SW,223,6.3,6.3,85,0.00,,,0.12,VWS V14.00,2013-04-20 02:05:00,
2013-04-19 22:10:00,33.6,29.9,29.54,SW,219,4.0,4.0,86,0.00,,,0.12,VWS V14.00,2013-04-20 02:10:00,
2013-04-19 22:16:00,33.6,29.9,29.54,West,274,3.1,3.1,86,0.00,,,0.12,VWS V14.00,2013-04-20 02:16:00,
2013-04-19 22:21:00,33.4,29.7,29.54,SW,228,3.6,7.6,86,0.00,,,0.12,VWS V14.00,2013-04-20 02:21:00,
2013-04-19 22:27:00,33.4,29.7,29.54,SW,229,3.6,3.6,86,0.00,,,0.12,VWS V14.00,2013-04-20 02:27:00,
2013-04-19 22:32:00,33.4,29.7,29.54,WSW,238,3.1,3.1,86,0.00,,,0.12,VWS V14.00,2013-04-20 02:32:00,
2013-04-19 22:38:00,33.6,29.9,29.54,WNW,300,3.1,3.1,86,0.00,,,0.12,VWS V14.00,2013-04-20 02:38:00,
2013-04-19 22:43:00,33.8,29.8,29.54,WSW,249,0.0,3.1,85,0.00,,,0.12,VWS V14.00,2013-04-20 02:43:00,
2013-04-19 22:49:00,33.8,29.8,29.51,NW,304,5.4,5.4,85,0.00,,,0.12,VWS V14.00,2013-04-20 02:49:00,
2013-04-19 22:54:00,34.0,30.0,29.51,NW,318,4.0,5.8,85,0.00,,,0.12,VWS V14.00,2013-04-20 02:54:00,
2013-04-19 22:59:00,34.0,30.0,29.54,NNW,329,7.2,7.2,85,0.00,,,0.12,VWS V14.00,2013-04-20 02:59:00,
2013-04-19 23:04:00,34.2,29.5,29.54,SSE,152,7.6,7.6,83,0.00,,,0.12,VWS V14.00,2013-04-20 03:04:00,
2013-04-19 23:10:00,34.2,28.6,29.54,NNE,21,5.4,5.4,80,0.00,,,0.12,VWS V14.00,2013-04-20 03:10:00,
2013-04-19 23:16:00,34.3,28.5,29.54,WSW,246,8.1,8.1,79,0.00,,,0.12,VWS V14.00,2013-04-20 03:16:00,
2013-04-19 23:21:00,34.3,28.2,29.54,North,9,5.4,5.4,78,0.00,,,0.12,VWS V14.00,2013-04-20 03:21:00,
2013-04-19 23:27:00,34.3,27.9,29.54,WNW,295,11.0,11.0,77,0.00,,,0.12,VWS V14.00,2013-04-20 03:27:00,
2013-04-19 23:32:00,34.3,27.9,29.54,NW,310,4.9,8.7,77,0.00,,,0.12,VWS V14.00,2013-04-20 03:32:00,
2013-04-19 23:37:00,34.2,27.4,29.54,NNW,334,6.3,7.2,76,0.00,,,0.12,VWS V14.00,2013-04-20 03:37:00,
2013-04-19 23:43:00,34.2,26.4,29.57,NNW,341,6.3,6.3,73,0.00,,,0.12,VWS V14.00,2013-04-20 03:43:00,
2013-04-19 23:48:00,34.2,26.4,29.57,NW,304,6.3,6.3,73,0.00,,,0.12,VWS V14.00,2013-04-20 03:48:00,
2013-04-19 23:53:00,34.2,26.1,29.57,WSW,251,8.3,8.3,72,0.00,,,0.12,VWS V14.00,2013-04-20 03:53:00,
2013-04-19 23:58:00,34.2,26.1,29.57,WNW,299,8.7,8.7,72,0.00,,,0.00,VWS V14.00,2013-04-20 03:58:00,